Zurück zum Katalog

STARLINK-32399

AktivKommunikationVLEO
NORAD 61627·PAYLOAD·🇺🇸 United States

Gestartet Oct 23, 2024 von Cape Canaveral Space Force Station

Loading…

Nächste Überflüge (nächste 24 Stunden)

TLE

AktuellSource: CelesTrak SupGP

Epoche: Sep 15, 2026, 03:22 UTC

1 61627C 24191G   26258.14076389  .00046603  00000+0  16884-2 0  2585
2 61627  43.0012 157.1588 0001460 275.6592 179.6102 15.27546391    16

Verfolge STARLINK-32399 in Echtzeit mit AllMySat

Download on the App Store